Agenzia del porto Bunker Vibo
  Sponsor: SUD CANTIERI 

OBSERVATIONS
LATEST DOWNLOAD: 2018/12/16 19:12:36

STATION LGTS/166220
Sunday, 16 December 2018, 17:50 UTC

pressure 1014 hPa
temperature 6 °C
dewpoint 1 °C
humidity 70.3%
wind NNW-14 knots
visibility Good
sky Scattered clouds
weather -

MAIN LOCATIONS

HOURLY DATA

HOTEL RESERVATION

WEATHER REPORT WEATHER REPORT

METEOMAR METEOMAR

WEATHER CHARTS WEATHER CHARTS

WEBCAM WEBCAM



 THESSALONIKI
COUNTRY
GREECE
     LAT
40.51 N
    LON
22.96 E
    ELEV
4 m
     REGION
-
     PROVINCE
-
     ZONE
-

LATEST 24 HOURS ( 48 OBSERVATIONS )
Observation time
UTC
temperature
humidity
%
pressure
hPa
  wind
knots
2018/12/16 17:506 701014NNW-14
2018/12/16 17:206 701014NNW-16
2018/12/16 16:506 701014NNW-13
2018/12/16 16:207 701013N-12
2018/12/16 15:507 701013NNW-11
2018/12/16 15:207 701013NNW-9
2018/12/16 14:507 751013N-10
2018/12/16 14:208 751013N-10
2018/12/16 13:508 811012NNW-11
2018/12/16 13:208 871012NNW-7
2018/12/16 12:509 871011NNW-11
2018/12/16 12:208 931011NNW-13
2018/12/16 11:509 871011NNW-14
2018/12/16 11:2010 871011NW-15
2018/12/16 10:5013 931011VAR-3
2018/12/16 10:2013 931011VAR-3
2018/12/16 09:5012 931011VAR-2
2018/12/16 08:5011 931012VAR-2
2018/12/16 08:2011 931012VAR-2
2018/12/16 07:5011 931011VAR-3
2018/12/16 07:2011 931011NW-5
2018/12/16 06:5011 931011W-7
2018/12/16 06:2011 931011VAR-3
2018/12/16 05:5010 931011VAR-3
2018/12/16 05:2010 931011VAR-3
2018/12/16 04:5010 931011S-4
2018/12/16 04:2010 931011ESE-6
2018/12/16 03:5010 931011W-4
2018/12/16 03:2010 931011WSW-5
2018/12/16 02:5010 931011VAR-3
2018/12/16 02:2010 931011VAR-3
2018/12/16 01:5010 931012
2018/12/16 01:209 931012VAR-2
2018/12/16 00:509 931012VAR-2
2018/12/16 00:209 931012VAR-3
2018/12/15 23:5010 931012VAR-2
2018/12/15 23:2010 931012VAR-2
2018/12/15 22:5010 931013VAR-2
2018/12/15 22:2010 931013
2018/12/15 21:5010 931013VAR-2
2018/12/15 21:2010 931013VAR-2
2018/12/15 20:5010 931013
2018/12/15 20:2010 871013VAR-2
2018/12/15 19:5010 871014
2018/12/15 19:2010 871013VAR-3
2018/12/15 18:5010 871013VAR-2
2018/12/15 18:2010 871014VAR-2
2018/12/15 17:5010 871014
( Previous data )

ARCHIVE   LOCAL FORECASTS   CLIMATE AVERAGES